sat.trackr.live / text

‹ back to catalog

STARLINK-11565 [DTC]

NORAD 62912 · 2025-027F

PAYLOAD ACTIVE UNKNOWN

§ Identity

Operator
Country
US
Launch date
2025-02-08
Launch site
AFETR
Launch vehicle
Mass (kg)
RCS (m²)

Purposes: comms

External: N2YO · Heavens-Above · Gunter

§ Orbital elements

Epoch: 2026-05-24T15:38:51.578304Z

Period
91.66 min
Inclination
43.0043°
Eccentricity
0.0003584
Mean motion
15.70962883 rev/d
Perigee alt
353.7 km
Apogee alt
358.6 km
Semi-major
6,734.3 km
B*
1.1655e-3
RAAN
249.3761°
Arg perigee
268.1344°
Mean anomaly
91.9113°
Rev number
7,510

§ Raw data

STARLINK-11565 [DTC]1 62912U 25027F   26144.65198586  .00152696  00000+0  11655-2 0  99992 62912  43.0043 249.3761 0003584 268.1344  91.9113 15.70962883 75102

JSON: /api/v1/satellites/62912 · /tle

For live sub-satellite position, see the globe view (requires WebGL).

§ Visibility from observer

Set your observer location to see the next 7 days of passes ≥ 10°. The values pass through the URL so the page stays shareable.

No JS? Fill the form by hand. The geolocation button needs JavaScript.